FW4310 Weather Reports


time (UTC)temp
F
wind
direction
speed
knots
gust
knots
rain 1hr
in
rain 24hr
in
rain mn
in
humidity
%
barometer
mb
20260906113703 78 51 0.0 0.0 0.00 0.00 0.00 88 1012.7
20260906113424 78 53 0.0 0.0 0.00 0.00 0.00 88 1012.7
20260906112703 77 53 0.0 0.0 0.00 0.00 0.00 88 1012.7
20260906112205 77 53 0.0 0.0 0.00 0.00 0.00 88 1012.5
20260906111705 77 55 0.0 0.9 0.00 0.00 0.00 88 1012.4
20260906111427 77 55 0.0 0.9 0.00 0.00 0.00 88 1012.4
20260906110703 77 22 0.0 0.9 0.00 0.00 0.00 88 1012.3
20260906110434 77 22 0.0 0.9 0.00 0.00 0.00 88 1012.3
20260906105703 77 22 0.0 0.0 0.00 0.00 0.00 88 1012.3
20260906105203 77 22 0.0 0.0 0.00 0.00 0.00 88 1012.1
20260906104703 78 22 0.0 0.0 0.00 0.00 0.00 88 1012.1
20260906104202 78 22 0.0 0.0 0.00 0.00 0.00 88 1012.1
20260906103701 77 22 0.0 0.0 0.00 0.00 0.00 88 1012.1
20260906103428 77 22 0.0 0.0 0.00 0.00 0.00 88 1012.1
20260906102701 77 22 0.0 0.9 0.00 0.00 0.00 88 1012.0
20260906102202 78 22 0.0 0.9 0.00 0.00 0.00 88 1011.9
20260906101701 78 22 0.0 0.0 0.00 0.00 0.00 88 1011.9
20260906101426 77 22 0.0 0.0 0.00 0.00 0.00 88 1011.9
20260906100702 77 22 0.0 0.0 0.00 0.00 0.00 88 1012.0
20260906100203 77 22 0.0 0.0 0.00 0.00 0.00 87 1012.0
20260906095919 78 22 0.0 0.0 0.00 0.00 0.00 87 1011.9
20260906095151 78 22 0.0 0.0 0.00 0.00 0.00 87 1011.9
20260906094646 77 22 0.0 0.0 0.00 0.00 0.00 87 1011.9
20260906094139 77 22 0.0 0.0 0.00 0.00 0.00 87 1011.8
20260906093904 77 22 0.0 0.0 0.00 0.00 0.00 87 1011.7
20260906093133 78 22 0.0 0.0 0.00 0.00 0.00 87 1011.7
20260906092633 78 22 0.0 0.0 0.00 0.00 0.00 87 1011.6
20260906092132 77 22 0.0 0.0 0.00 0.00 0.00 87 1011.4
20260906091633 77 22 0.0 0.0 0.00 0.00 0.00 87 1011.4
20260906091355 78 22 0.0 0.0 0.00 0.00 0.00 87 1011.3
20260906090859 78 22 0.0 0.0 0.00 0.00 0.00 87 1011.4
20260906090132 78 22 0.0 0.0 0.00 0.00 0.00 88 1011.5
20260906085632 78 22 0.0 0.9 0.00 0.00 0.00 88 1011.5
20260906085353 78 22 0.0 0.9 0.00 0.00 0.00 88 1011.5
20260906084631 78 22 0.0 0.9 0.00 0.00 0.00 88 1011.5
20260906084356 78 22 0.0 0.0 0.00 0.00 0.00 88 1011.5
20260906083630 78 22 0.0 0.0 0.00 0.00 0.00 88 1011.5
20260906083129 78 22 0.0 0.0 0.00 0.00 0.00 88 1011.5
20260906082630 78 22 0.0 0.0 0.00 0.00 0.00 87 1011.5
20260906082129 78 22 0.0 1.7 0.00 0.00 0.00 87 1011.6
20260906081629 78 22 0.0 1.7 0.00 0.00 0.00 87 1011.8
20260906081132 78 22 0.0 0.0 0.00 0.00 0.00 87 1011.7
20260906080627 78 22 0.0 0.0 0.00 0.00 0.00 86 1011.6
20260906080345 79 22 0.0 0.0 0.00 0.00 0.00 86 1011.6
20260906075623 79 22 0.0 0.0 0.00 0.00 0.00 86 1011.6
20260906075120 79 22 0.0 0.0 0.00 0.00 0.00 85 1011.7
20260906074844 79 22 0.0 0.0 0.00 0.00 0.00 85 1011.7
20260906074116 79 22 0.0 0.0 0.00 0.00 0.00 85 1011.7
20260906073616 79 22 0.0 0.0 0.00 0.00 0.00 85 1011.7
20260906073115 79 22 0.0 0.0 0.00 0.00 0.00 85 1011.7
20260906072615 79 22 0.0 0.0 0.00 0.00 0.00 85 1011.9
20260906072112 79 22 0.0 0.0 0.00 0.00 0.00 84 1011.9
20260906071610 79 22 0.0 0.0 0.00 0.00 0.00 84 1011.9
20260906071108 79 22 0.0 0.0 0.00 0.00 0.00 84 1011.9
20260906070606 79 22 0.0 0.0 0.00 0.00 0.00 84 1012.0
20260906070106 79 22 0.0 0.0 0.00 0.00 0.00 84 1012.1
20260906065603 79 22 0.0 0.0 0.00 0.00 0.00 84 1012.2
20260906065102 80 22 0.0 0.0 0.00 0.00 0.00 84 1012.2
20260906064602 79 22 0.0 0.0 0.00 0.00 0.00 84 1012.3
20260906064323 80 22 0.0 0.9 0.00 0.00 0.00 84 1012.3
20260906063602 79 22 0.0 0.9 0.00 0.00 0.00 84 1012.3
20260906063102 79 22 0.0 0.0 0.00 0.00 0.00 84 1012.2
20260906062600 80 22 0.0 0.0 0.00 0.00 0.00 84 1012.2
20260906062102 80 22 0.0 0.0 0.00 0.00 0.00 84 1012.3
20260906061601 80 22 0.0 1.7 0.00 0.00 0.00 85 1012.2
20260906061054 80 22 0.0 1.7 0.00 0.00 0.00 85 1012.2
20260906060554 80 22 0.0 0.0 0.00 0.00 0.00 86 1012.3
20260906060054 80 22 0.0 0.0 0.00 0.00 0.00 86 1012.6
20260906055552 80 22 0.0 1.7 0.00 0.00 0.00 86 1012.7
20260906055315 80 22 0.0 2.6 0.00 0.00 0.00 87 1012.5
20260906054810 81 14 0.0 2.6 0.00 0.00 0.00 87 1012.5
20260906054312 81 346 0.0 0.9 0.00 0.00 0.00 87 1012.4
20260906053547 81 346 0.0 0.0 0.00 0.00 0.00 88 1012.3
20260906053043 81 346 0.0 0.9 0.00 0.00 0.00 87 1012.4
20260906052540 82 346 0.0 1.7 0.00 0.00 0.00 88 1012.5
20260906052038 82 346 0.0 2.6 0.00 0.00 0.00 88 1012.6
20260906051801 83 319 0.0 2.6 0.00 0.00 0.00 88 1012.7
20260906051257 83 249 0.0 1.7 0.00 0.00 0.00 88 1012.8
20260906050534 83 249 0.0 0.9 0.00 0.00 0.00 88 1012.5
20260906050034 83 249 0.0 0.9 0.00 0.00 0.00 88 1012.5
20260906045532 83 248 0.0 1.7 0.00 0.00 0.00 88 1012.5
20260906045030 83 248 0.9 2.6 0.00 0.00 0.00 88 1012.4
20260906044530 83 246 0.9 2.6 0.00 0.00 0.00 88 1012.4
20260906044029 84 252 0.9 5.2 0.00 0.00 0.00 88 1012.5
20260906043530 84 248 1.7 5.2 0.00 0.00 0.00 88 1012.5
20260906043029 84 254 1.7 5.2 0.00 0.00 0.00 87 1012.7
20260906042527 84 224 1.7 5.2 0.00 0.00 0.00 87 1012.7
20260906042022 84 248 0.9 4.3 0.00 0.00 0.00 87 1012.8
20260906041516 84 250 0.9 4.3 0.00 0.00 0.00 87 1012.8
20260906041009 84 247 0.9 4.3 0.00 0.00 0.00 87 1012.8
20260906040728 84 248 0.9 3.5 0.00 0.00 0.00 87 1012.7
20260906040227 84 254 0.9 3.5 0.00 0.00 0.00 87 1012.7
20260906035507 84 291 0.9 6.1 0.00 0.00 0.00 87 1012.8
20260906035005 84 248 1.7 7.0 0.00 0.00 0.00 86 1012.8
20260906034503 84 244 1.7 7.0 0.00 0.00 0.00 86 1012.8
20260906034002 84 264 1.7 6.1 0.00 0.00 0.00 86 1012.8
20260906033502 84 242 1.7 7.8 0.00 0.00 0.00 86 1012.9
20260906033003 84 255 0.9 7.8 0.00 0.00 0.00 86 1012.8
20260906032502 84 246 0.9 6.1 0.00 0.00 0.00 86 1012.8
20260906032006 85 247 1.7 7.8 0.00 0.00 0.00 85 1012.9
20260906031502 85 255 2.6 7.8 0.00 0.00 0.00 85 1012.9
20260906031002 85 245 1.7 5.2 0.00 0.00 0.00 85 1012.8
20260906030503 85 229 0.9 3.5 0.00 0.00 0.00 85 1012.9
20260906030002 85 216 0.0 2.6 0.00 0.00 0.00 85 1012.9
20260906025725 85 257 0.0 1.7 0.00 0.00 0.00 85 1013.2
20260906025224 85 257 0.0 1.7 0.00 0.00 0.00 85 1013.4
20260906024502 85 257 0.0 1.7 0.00 0.00 0.00 85 1013.2
20260906024003 85 257 0.9 3.5 0.00 0.00 0.00 84 1013.3
20260906023502 85 252 1.7 6.1 0.00 0.00 0.00 85 1013.1
20260906023229 85 256 1.7 6.1 0.00 0.00 0.00 84 1012.8
20260906022501 85 211 1.7 7.8 0.00 0.00 0.00 84 1012.7
20260906022002 85 273 2.6 7.8 0.00 0.00 0.00 84 1012.3
20260906021502 85 223 1.7 6.1 0.00 0.00 0.00 84 1011.9
20260906021005 85 227 2.6 7.8 0.00 0.00 0.00 84 1012.1
20260906020725 85 259 2.6 7.8 0.00 0.00 0.00 84 1012.1
20260906015504 85 242 2.6 6.1 0.00 0.00 0.00 84 1011.3
20260906015002 85 224 2.6 6.1 0.00 0.00 0.00 84 1011.0
20260906014501 85 192 2.6 7.0 0.00 0.00 0.00 84 1011.2
20260906014002 85 155 2.6 7.0 0.00 0.00 0.00 84 1011.4
20260906013501 85 201 2.6 5.2 0.00 0.00 0.00 84 1011.5
20260906013003 85 213 1.7 4.3 0.00 0.00 0.00 84 1011.6
20260906012501 84 198 0.9 6.1 0.00 0.00 0.00 85 1011.8
20260906012004 84 214 0.9 6.1 0.00 0.00 0.00 85 1012.0
20260906011726 84 204 0.9 4.3 0.00 0.00 0.00 85 1012.3
20260906011003 84 217 0.9 4.3 0.00 0.00 0.00 85 1012.2
20260906010502 84 240 0.9 7.0 0.00 0.00 0.00 85 1012.3
20260906010002 84 240 0.9 7.0 0.00 0.00 0.00 85 1012.5
20260906005726 84 197 0.0 1.7 0.00 0.00 0.00 85 1012.6
20260906004957 84 240 0.0 1.7 0.00 0.00 0.00 85 1012.8
20260906004456 84 240 0.0 2.6 0.00 0.00 0.00 85 1012.9
20260906003454 84 244 0.0 2.6 0.00 0.00 0.00 85 1012.9
20260906002954 84 256 0.0 2.6 0.00 0.00 0.00 84 1012.8
20260906002456 84 243 0.0 2.6 0.00 0.00 0.00 84 1012.8
20260906001955 84 234 0.0 2.6 0.00 0.00 0.00 84 1012.8
20260906001454 84 213 0.0 0.9 0.00 0.00 0.00 84 1013.0
20260906000952 85 225 0.0 2.6 0.00 0.00 0.00 84 1013.0
20260906000712 85 234 0.0 4.3 0.00 0.00 0.00 84 1013.0
20260905235950 84 259 0.9 4.3 0.00 0.00 0.00 84 1013.0
20260905235715 85 246 0.9 4.3 0.00 0.00 0.00 84 1013.0
20260905234950 84 249 0.9 2.6 0.00 0.00 0.00 83 1012.8
20260905234445 85 229 0.9 3.5 0.00 0.00 0.00 83 1012.7
20260905233946 85 225 0.9 3.5 0.00 0.00 0.00 83 1012.8
20260905233446 85 223 1.7 5.2 0.00 0.00 0.00 83 1012.9
20260905233209 85 180 1.7 7.8 0.00 0.00 0.00 82 1012.9
20260905232444 85 235 1.7 7.8 0.00 0.00 0.00 82 1012.8
20260905231942 85 208 1.7 4.3 0.00 0.00 0.00 82 1012.9
20260905231438 85 182 1.7 7.0 0.00 0.00 0.00 82 1012.7
20260905231205 85 234 2.6 7.0 0.00 0.00 0.00 81 1012.5
20260905230438 85 190 2.6 6.1 0.00 0.00 0.00 81 1012.5
20260905225936 85 28 1.7 7.8 0.00 0.00 0.00 81 1012.9
20260905225659 85 225 1.7 7.8 0.00 0.00 0.00 81 1012.5
20260905225157 85 113 1.7 7.8 0.00 0.00 0.00 80 1012.6
20260905224654 86 202 2.6 7.0 0.00 0.00 0.00 80 1012.6
20260905223934 86 200 2.6 7.0 0.00 0.00 0.00 80 1012.7
20260905223434 86 204 2.6 6.1 0.00 0.00 0.00 80 1012.5
20260905222930 86 173 2.6 7.0 0.00 0.00 0.00 80 1012.6
20260905222430 86 159 2.6 8.7 0.00 0.00 0.00 79 1012.6
20260905221930 87 207 2.6 9.6 0.00 0.00 0.00 79 1012.5
20260905221430 87 168 2.6 9.6 0.00 0.00 0.00 79 1012.5
20260905220930 87 151 2.6 7.0 0.00 0.00 0.00 79 1012.5
20260905220431 87 195 2.6 7.0 0.00 0.00 0.00 79 1012.4
20260905215931 87 204 2.6 7.8 0.00 0.00 0.00 78 1012.5
20260905215431 87 225 2.6 7.8 0.00 0.00 0.00 78 1012.4
20260905214931 87 209 2.6 7.0 0.00 0.00 0.00 78 1012.5
20260905214655 88 180 2.6 7.0 0.00 0.00 0.00 77 1012.5
20260905213930 88 186 2.6 7.0 0.00 0.00 0.00 78 1012.5
20260905213430 88 256 2.6 5.2 0.00 0.00 0.00 76 1012.4
20260905212930 88 198 2.6 7.0 0.00 0.00 0.00 77 1012.4
20260905212430 88 198 1.7 7.0 0.00 0.00 0.00 76 1012.4
20260905211930 88 189 2.6 5.2 0.00 0.00 0.00 77 1012.4
20260905211430 88 159 2.6 5.2 0.00 0.00 0.00 77 1012.3
20260905210930 88 170 2.6 5.2 0.00 0.00 0.00 76 1012.3
20260905210430 88 223 1.7 6.1 0.00 0.00 0.00 76 1012.2
20260905205930 88 214 2.6 7.8 0.00 0.00 0.00 76 1012.2
20260905205429 88 239 2.6 7.8 0.00 0.00 0.00 76 1012.3
20260905204929 88 223 2.6 7.8 0.00 0.00 0.00 76 1012.2
20260905204429 88 240 2.6 6.1 0.00 0.00 0.00 76 1012.1
20260905203929 88 215 2.6 7.0 0.00 0.00 0.00 76 1012.1
20260905203429 88 215 2.6 10.4 0.00 0.00 0.00 76 1012.0
20260905202930 88 211 2.6 10.4 0.00 0.00 0.00 75 1011.9
20260905202429 88 182 2.6 9.6 0.00 0.00 0.00 77 1011.9
20260905202156 88 35 3.5 9.6 0.00 0.00 0.00 76 1011.8
20260905201430 88 203 2.6 7.8 0.00 0.00 0.00 76 1011.8
20260905200930 89 227 2.6 5.2 0.00 0.00 0.00 74 1011.9
20260905200429 89 216 2.6 7.0 0.00 0.00 0.00 73 1012.0
20260905195929 89 203 1.7 7.0 0.00 0.00 0.00 73 1012.0
20260905195429 89 191 1.7 6.1 0.00 0.00 0.00 73 1011.9
20260905194930 89 148 1.7 6.1 0.00 0.00 0.00 72 1012.0
20260905194429 90 225 1.7 6.1 0.00 0.00 0.00 72 1012.0
20260905193929 89 307 1.7 4.3 0.00 0.00 0.00 73 1012.2
20260905193429 89 202 1.7 7.0 0.00 0.00 0.00 74 1012.3
20260905192429 88 169 2.6 7.0 0.00 0.00 0.00 74 1012.5
20260905191929 89 210 2.6 7.8 0.00 0.00 0.00 75 1012.5
20260905191430 89 216 2.6 7.8 0.00 0.00 0.00 75 1012.6
20260905190930 89 223 2.6 7.0 0.00 0.00 0.00 76 1012.7
20260905190430 89 153 3.5 8.7 0.00 0.00 0.00 74 1012.9
20260905185930 89 234 3.5 8.7 0.00 0.00 0.00 73 1013.0
20260905185429 88 172 2.6 7.0 0.00 0.00 0.00 75 1013.1
20260905184930 89 202 2.6 7.0 0.00 0.00 0.00 75 1013.1
20260905184430 89 254 1.7 5.2 0.00 0.00 0.00 75 1013.3
20260905183929 89 234 1.7 5.2 0.00 0.00 0.00 77 1013.3
20260905183429 88 200 2.6 7.8 0.00 0.00 0.00 77 1013.2
20260905182928 89 153 2.6 8.7 0.00 0.00 0.00 77 1013.3
20260905182429 87 186 3.5 10.4 0.00 0.00 0.00 78 1013.2
20260905181929 88 198 3.5 10.4 0.00 0.00 0.00 76 1013.4
20260905181430 88 126 3.5 9.6 0.00 0.00 0.00 76 1013.5
20260905180929 89 196 3.5 9.6 0.00 0.00 0.00 75 1013.6
20260905180429 89 200 2.6 6.1 0.00 0.00 0.00 74 1013.7
20260905180153 89 219 3.5 7.0 0.00 0.00 0.00 76 1013.8
20260905175429 88 188 3.5 7.8 0.00 0.00 0.00 75 1014.0
20260905174929 88 160 3.5 7.8 0.00 0.00 0.00 75 1014.0
20260905174430 88 151 2.6 7.8 0.00 0.00 0.00 75 1014.2
20260905173929 88 155 2.6 7.0 0.00 0.00 0.00 75 1014.2
20260905173654 88 154 2.6 7.0 0.00 0.00 0.00 75 1014.2
20260905172929 88 183 2.6 6.1 0.00 0.00 0.00 74 1014.3
20260905172654 88 153 2.6 7.0 0.00 0.00 0.00 74 1014.3
20260905171929 89 165 2.6 7.0 0.00 0.00 0.00 74 1014.3
20260905171650 88 118 2.6 7.8 0.00 0.00 0.00 75 1014.4
20260905170930 88 192 2.6 7.8 0.00 0.00 0.00 75 1014.4
20260905170657 88 163 2.6 5.2 0.00 0.00 0.00 75 1014.4
20260905165930 89 187 1.7 6.1 0.00 0.00 0.00 74 1014.5
20260905165429 89 184 1.7 6.1 0.00 0.00 0.00 75 1014.6
20260905165149 88 182 2.6 6.1 0.00 0.00 0.00 75 1014.6
20260905164430 88 198 2.6 6.1 0.00 0.00 0.00 76 1014.8
20260905163929 88 148 1.7 6.1 0.00 0.00 0.00 75 1014.8
20260905163429 89 215 2.6 7.0 0.00 0.00 0.00 77 1014.9
20260905162651 87 182 3.5 7.8 0.00 0.00 0.00 77 1015.1
20260905161929 88 171 2.6 7.0 0.00 0.00 0.00 76 1015.1
20260905161429 88 118 1.7 6.1 0.00 0.00 0.00 77 1015.2
20260905160429 86 168 1.7 6.1 0.00 0.00 0.00 79 1015.2
20260905155929 85 171 2.6 5.2 0.00 0.00 0.00 80 1015.3
20260905155429 86 115 1.7 6.1 0.00 0.00 0.00 80 1015.4
20260905154930 86 161 1.7 6.1 0.00 0.00 0.00 78 1015.4
20260905154429 87 195 1.7 6.1 0.00 0.00 0.00 79 1015.4
20260905153929 87 179 1.7 6.1 0.00 0.00 0.00 77 1015.4
20260905153429 87 78 0.9 6.1 0.00 0.00 0.00 77 1015.5
20260905152930 87 113 0.9 6.1 0.00 0.00 0.00 77 1015.3
20260905152430 88 137 0.9 5.2 0.00 0.00 0.00 75 1015.4
20260905151929 88 121 0.9 4.3 0.00 0.00 0.00 74 1015.4
20260905151429 87 192 0.9 3.5 0.00 0.00 0.00 74 1015.5
20260905150930 88 252 0.9 3.5 0.00 0.00 0.00 73 1015.4
20260905150429 88 260 0.0 3.5 0.00 0.00 0.00 73 1015.5
20260905145929 89 272 0.0 2.6 0.00 0.00 0.00 72 1015.6
20260905145429 89 241 0.0 2.6 0.00 0.00 0.00 73 1015.4
20260905145154 89 196 0.0 1.7 0.00 0.00 0.00 73 1015.5
20260905144429 89 196 0.0 1.7 0.00 0.00 0.00 72 1015.7
20260905144154 88 171 0.0 1.7 0.00 0.00 0.00 76 1015.6
20260905142929 87 174 0.0 0.9 0.00 0.00 0.00 76 1015.6
20260905142656 88 174 0.0 0.9 0.00 0.00 0.00 74 1015.6
20260905141929 90 138 0.0 0.9 0.00 0.00 0.00 72 1015.6
20260905141429 89 136 0.0 0.9 0.00 0.00 0.00 76 1015.7
20260905140930 87 130 0.0 0.9 0.00 0.00 0.00 79 1015.6
20260905140429 86 350 0.0 2.6 0.00 0.00 0.00 79 1015.7
20260905135929 87 316 0.0 2.6 0.00 0.00 0.00 77 1015.7
20260905135429 88 309 0.0 0.9 0.00 0.00 0.00 76 1015.7
20260905134928 89 42 0.0 3.5 0.00 0.00 0.00 78 1015.6
20260905134429 87 31 0.9 3.5 0.00 0.01 0.00 79 1015.6
20260905133930 86 11 0.9 3.5 0.00 0.01 0.00 80 1015.7
20260905133429 87 319 0.0 1.7 0.00 0.01 0.00 79 1015.7
20260905132929 87 5 0.0 3.5 0.00 0.01 0.00 80 1015.6
20260905132430 86 301 0.0 3.5 0.00 0.01 0.00 80 1015.6
20260905131929 86 279 0.0 2.6 0.00 0.01 0.00 81 1015.6
20260905131433 86 22 0.0 1.7 0.00 0.01 0.00 80 1015.6
20260905130930 86 218 0.0 0.0 0.00 0.01 0.00 82 1015.6
20260905130429 85 218 0.0 0.0 0.00 0.03 0.00 82 1015.6
20260905125929 85 221 0.0 0.9 0.00 0.04 0.00 83 1015.5
20260905125429 85 211 0.0 0.9 0.00 0.04 0.00 83 1015.7
20260905125155 85 198 0.0 0.0 0.00 0.04 0.00 84 1015.7
20260905124429 84 198 0.0 0.9 0.00 0.04 0.00 85 1015.7
20260905123929 84 255 0.0 1.7 0.00 0.04 0.00 85 1015.7
20260905123428 84 238 0.0 1.7 0.00 0.04 0.00 86 1015.8
20260905122929 84 229 0.0 0.9 0.00 0.04 0.00 87 1015.6
20260905122429 83 229 0.0 0.0 0.00 0.04 0.00 88 1015.6
20260905121929 83 229 0.0 0.0 0.00 0.04 0.00 88 1015.7
20260905121429 82 229 0.0 0.0 0.00 0.04 0.00 89 1015.8
20260905120929 82 74 0.0 0.0 0.00 0.04 0.00 90 1015.7
20260905120428 82 47 0.0 1.7 0.00 0.04 0.00 90 1015.8
20260905115928 82 47 0.0 1.7 0.00 0.04 0.00 90 1015.5
20260905115430 81 49 0.0 0.0 0.00 0.04 0.00 91 1015.5
20260905114930 81 49 0.0 0.0 0.00 0.04 0.00 91 1015.5
20260905114428 81 41 0.0 0.0 0.00 0.04 0.00 90 1015.4
20260905113929 81 21 0.0 0.9 0.00 0.04 0.00 91 1015.4